Location: Castelnau
(43.6639°N, 0.8431°W)
Time: 16:28:23
(UTC+00:00)

IRS-1D - Pass Details

Date: 13 January 2026
Orbit: 737 x 810 km, 98.8° (Epoch: 10 February)

Event Time Altitude Azimuth Distance (km) Brightness Sun altitude
Rises 04:51:25 0° 18° (NNE) 3,327 7.0 -29.0°
Reaches altitude 10° 04:53:48 10° 22° (NNE) 2,398 6.2 -28.6°
Maximum altitude 04:59:02 57° 101° (ESE) 947 4.1 -27.6°
Drops below altitude 10° 05:04:15 10° 180° (S) 2,386 6.1 -26.7°
Sets 05:06:37 0° 184° (S) 3,310 6.8 -26.2°
